Data No, UTC Date,UTC Time,Latitude,Longitude,Course(deg),Temp(degC),Sal(psu)
568,2021/10/8,9:27,42-36.93N,141-37.11E,208,18.487,32.3527
569,2021/10/8,9:28,42-36.69N,141-36.94E,205,18.65,32.3394
570,2021/10/8,9:29,42-36.43N,141-36.88E,183,18.613,32.3696
571,2021/10/8,9:30,42-36.16N,141-36.89E,178,18.538,32.3922
572,2021/10/8,9:31,42-35.87N,141-36.91E,175,18.558,32.5388
573,2021/10/8,9:32,42-35.60N,141-36.95E,174,18.586,32.7004
574,2021/10/8,9:33,42-35.32N,141-36.98E,175,18.621,32.8365
575,2021/10/8,9:34,42-35.04N,141-37.01E,176,18.623,32.9531
576,2021/10/8,9:35,42-34.76N,141-37.03E,177,18.669,32.9884
577,2021/10/8,9:36,42-34.47N,141-37.05E,177,18.655,32.998
578,2021/10/8,9:37,42-34.20N,141-37.06E,176,18.649,32.9971
579,2021/10/8,9:38,42-33.91N,141-37.09E,176,18.667,32.9923
580,2021/10/8,9:39,42-33.64N,141-37.10E,177,18.699,32.9808
581,2021/10/8,9:40,42-33.36N,141-37.13E,176,18.666,32.9794
582,2021/10/8,9:41,42-33.08N,141-37.15E,176,18.674,32.9732
583,2021/10/8,9:42,42-32.80N,141-37.17E,176,18.72,32.9618
584,2021/10/8,9:43,42-32.53N,141-37.19E,176,18.708,32.9648
585,2021/10/8,9:44,42-32.24N,141-37.21E,176,18.724,32.9644
586,2021/10/8,9:45,42-31.97N,141-37.23E,176,18.69,32.9539
587,2021/10/8,9:46,42-31.69N,141-37.25E,176,18.668,32.9495
588,2021/10/8,9:47,42-31.41N,141-37.27E,177,18.647,32.9357
589,2021/10/8,9:48,42-31.13N,141-37.29E,177,18.622,32.9231
590,2021/10/8,9:49,42-30.86N,141-37.30E,177,18.619,32.923
591,2021/10/8,9:50,42-30.58N,141-37.32E,177,18.656,32.9184
592,2021/10/8,9:51,42-30.30N,141-37.34E,176,18.678,32.9273
593,2021/10/8,9:52,42-30.02N,141-37.35E,177,18.663,32.9349
594,2021/10/8,9:53,42-29.73N,141-37.37E,177,18.652,32.9367
595,2021/10/8,9:54,42-29.46N,141-37.38E,177,18.656,32.9323
596,2021/10/8,9:55,42-29.13N,141-37.40E,177,18.659,32.9346
597,2021/10/8,9:56,42-28.85N,141-37.42E,177,18.69,32.9453
598,2021/10/8,9:57,42-28.57N,141-37.43E,177,18.712,32.9457
599,2021/10/8,9:58,42-28.29N,141-37.44E,177,18.764,32.9426
600,2021/10/8,9:59,42-28.03N,141-37.45E,177,18.718,32.9528
601,2021/10/8,10:00,42-27.76N,141-37.47E,177,18.703,32.9638
602,2021/10/8,10:01,42-27.48N,141-37.48E,178,18.743,32.9623
603,2021/10/8,10:02,42-27.20N,141-37.49E,178,18.74,32.968
604,2021/10/8,10:03,42-26.91N,141-37.50E,178,18.722,32.9744
605,2021/10/8,10:04,42-26.63N,141-37.51E,178,18.725,32.9713
606,2021/10/8,10:05,42-26.35N,141-37.52E,178,18.768,32.9692
607,2021/10/8,10:06,42-26.07N,141-37.53E,178,18.728,32.9815
608,2021/10/8,10:07,42-25.79N,141-37.54E,178,18.681,32.9901
609,2021/10/8,10:08,42-25.50N,141-37.54E,178,18.734,32.9888
610,2021/10/8,10:09,42-25.23N,141-37.55E,179,18.774,32.9848
611,2021/10/8,10:10,42-24.94N,141-37.55E,178,18.784,32.9931
612,2021/10/8,10:11,42-24.67N,141-37.56E,178,18.759,32.9944
613,2021/10/8,10:12,42-24.38N,141-37.57E,179,18.69,32.9874
614,2021/10/8,10:13,42-24.10N,141-37.57E,179,18.644,32.9641
615,2021/10/8,10:14,42-23.82N,141-37.58E,178,18.615,32.9479
616,2021/10/8,10:15,42-23.54N,141-37.58E,179,18.599,32.928
617,2021/10/8,10:16,42-23.26N,141-37.59E,178,18.628,32.9108
618,2021/10/8,10:17,42-22.99N,141-37.59E,179,18.648,32.9172
619,2021/10/8,10:18,42-22.70N,141-37.60E,179,18.635,32.9207
620,2021/10/8,10:19,42-22.43N,141-37.60E,179,18.644,32.9149
621,2021/10/8,10:20,42-22.14N,141-37.61E,179,18.587,32.9146
622,2021/10/8,10:21,42-21.87N,141-37.61E,178,18.568,32.901
623,2021/10/8,10:22,42-21.57N,141-37.62E,178,18.552,32.8963
624,2021/10/8,10:23,42-21.31N,141-37.62E,179,18.546,32.8932
625,2021/10/8,10:24,42-21.03N,141-37.63E,179,18.535,32.887
626,2021/10/8,10:25,42-20.75N,141-37.63E,179,18.541,32.8848
627,2021/10/8,10:26,42-20.46N,141-37.63E,181,18.552,32.8864
628,2021/10/8,10:27,42-20.18N,141-37.61E,181,18.589,32.885
629,2021/10/8,10:28,42-19.90N,141-37.60E,181,18.621,32.8893
630,2021/10/8,10:29,42-19.61N,141-37.58E,182,18.674,32.9059
631,2021/10/8,10:30,42-19.33N,141-37.57E,181,18.681,32.9258
632,2021/10/8,10:31,42-19.05N,141-37.56E,181,18.707,32.9446
633,2021/10/8,10:32,42-18.77N,141-37.55E,181,18.731,32.9707
634,2021/10/8,10:33,42-18.48N,141-37.53E,181,18.739,32.9897
635,2021/10/8,10:34,42-18.20N,141-37.52E,181,18.724,33.014
636,2021/10/8,10:35,42-17.90N,141-37.51E,181,18.727,33.0405
637,2021/10/8,10:36,42-17.62N,141-37.51E,181,18.752,33.1006
638,2021/10/8,10:37,42-17.33N,141-37.49E,181,18.758,33.1555
639,2021/10/8,10:38,42-17.04N,141-37.49E,180,18.738,33.1666
640,2021/10/8,10:39,42-16.76N,141-37.48E,181,18.722,33.1668
641,2021/10/8,10:40,42-16.47N,141-37.47E,181,18.711,33.166
642,2021/10/8,10:41,42-16.19N,141-37.46E,180,18.703,33.1626
643,2021/10/8,10:42,42-15.90N,141-37.46E,180,18.649,33.1622
644,2021/10/8,10:43,42-15.62N,141-37.45E,181,18.617,33.1642
645,2021/10/8,10:44,42-15.33N,141-37.45E,181,18.611,33.1677
646,2021/10/8,10:45,42-15.05N,141-37.44E,181,18.615,33.1684
647,2021/10/8,10:46,42-14.76N,141-37.43E,180,18.611,33.1719
648,2021/10/8,10:47,42-14.47N,141-37.43E,180,18.61,33.1762
649,2021/10/8,10:48,42-14.18N,141-37.43E,180,18.548,33.1815
650,2021/10/8,10:49,42-13.90N,141-37.42E,180,18.525,33.1863
651,2021/10/8,10:50,42-13.61N,141-37.42E,180,18.557,33.1768
652,2021/10/8,10:51,42-13.32N,141-37.41E,180,18.604,33.177
653,2021/10/8,10:52,42-13.04N,141-37.41E,180,18.606,33.1891
654,2021/10/8,10:53,42-12.75N,141-37.41E,180,18.597,33.1883
655,2021/10/8,10:54,42-12.47N,141-37.40E,180,18.599,33.1807
656,2021/10/8,10:55,42-12.18N,141-37.40E,180,18.626,33.1782
657,2021/10/8,10:56,42-11.90N,141-37.39E,180,18.635,33.1839
658,2021/10/8,10:57,42-11.61N,141-37.39E,180,18.665,33.1779
659,2021/10/8,10:58,42-11.33N,141-37.38E,180,18.715,33.1768
660,2021/10/8,10:59,42-11.04N,141-37.38E,180,18.788,33.1867
661,2021/10/8,11:00,42-10.76N,141-37.37E,180,18.831,33.1963
662,2021/10/8,11:01,42-10.46N,141-37.37E,180,18.851,33.2269
663,2021/10/8,11:02,42-10.18N,141-37.36E,180,18.874,33.2364
664,2021/10/8,11:03,42-09.85N,141-37.36E,180,18.886,33.2343
665,2021/10/8,11:04,42-09.57N,141-37.35E,180,18.887,33.2485
666,2021/10/8,11:05,42-09.28N,141-37.35E,180,18.883,33.2469
667,2021/10/8,11:06,42-08.99N,141-37.34E,180,18.881,33.2567
668,2021/10/8,11:07,42-08.71N,141-37.34E,180,18.875,33.2569
669,2021/10/8,11:08,42-08.43N,141-37.33E,180,18.882,33.2613
670,2021/10/8,11:09,42-08.14N,141-37.32E,180,18.88,33.2611
671,2021/10/8,11:10,42-07.87N,141-37.32E,180,18.873,33.2595
672,2021/10/8,11:11,42-07.58N,141-37.32E,180,18.854,33.2663
673,2021/10/8,11:12,42-07.30N,141-37.31E,180,18.833,33.2577
674,2021/10/8,11:13,42-07.02N,141-37.30E,181,18.817,33.2517
675,2021/10/8,11:14,42-06.74N,141-37.29E,180,18.811,33.2453
676,2021/10/8,11:15,42-06.49N,141-37.29E,180,18.816,33.2494
677,2021/10/8,11:16,42-06.21N,141-37.28E,180,18.812,33.243
678,2021/10/8,11:17,42-05.89N,141-37.28E,181,18.812,33.2435
679,2021/10/8,11:18,42-05.60N,141-37.27E,181,18.815,33.2419
680,2021/10/8,11:19,42-05.31N,141-37.26E,180,18.806,33.2465
681,2021/10/8,11:20,42-05.02N,141-37.25E,180,18.797,33.2478
682,2021/10/8,11:21,42-04.79N,141-37.25E,181,18.788,33.2418
683,2021/10/8,11:22,42-04.50N,141-37.24E,180,18.781,33.241
684,2021/10/8,11:23,42-04.23N,141-37.23E,180,18.781,33.2474
685,2021/10/8,11:24,42-03.94N,141-37.23E,180,18.776,33.2401
686,2021/10/8,11:25,42-03.66N,141-37.22E,181,18.777,33.2425
687,2021/10/8,11:26,42-03.37N,141-37.21E,180,18.778,33.2369
688,2021/10/8,11:27,42-03.10N,141-37.21E,180,18.781,33.2373
689,2021/10/8,11:28,42-02.82N,141-37.20E,180,18.781,33.2331
690,2021/10/8,11:29,42-02.53N,141-37.20E,180,18.776,33.2384
691,2021/10/8,11:30,42-02.24N,141-37.19E,181,18.777,33.2326
692,2021/10/8,11:31,42-01.97N,141-37.17E,182,18.778,33.2358
693,2021/10/8,11:32,42-01.68N,141-37.15E,182,18.774,33.2338
694,2021/10/8,11:33,42-01.40N,141-37.13E,182,18.772,33.2337
695,2021/10/8,11:34,42-01.11N,141-37.12E,182,18.772,33.2274
696,2021/10/8,11:35,42-00.82N,141-37.10E,182,18.774,33.2299
697,2021/10/8,11:36,42-00.54N,141-37.08E,182,18.765,33.2373
698,2021/10/8,11:37,42-00.25N,141-37.06E,182,18.762,33.2283
699,2021/10/8,11:38,41-59.97N,141-37.05E,182,18.741,33.224
700,2021/10/8,11:39,41-59.68N,141-37.03E,182,18.727,33.2275
701,2021/10/8,11:40,41-59.39N,141-37.01E,182,18.722,33.2217
702,2021/10/8,11:41,41-59.10N,141-37.00E,182,18.744,33.2157
703,2021/10/8,11:42,41-58.81N,141-36.98E,182,18.788,33.2279
704,2021/10/8,11:43,41-58.52N,141-36.96E,182,18.819,33.2368
705,2021/10/8,11:44,41-58.23N,141-36.94E,182,18.853,33.2499
706,2021/10/8,11:45,41-57.95N,141-36.92E,182,18.816,33.2603
707,2021/10/8,11:46,41-57.65N,141-36.90E,182,18.746,33.2543
708,2021/10/8,11:47,41-57.37N,141-36.88E,183,18.686,33.2232
709,2021/10/8,11:48,41-57.05N,141-36.85E,183,18.672,33.1945
710,2021/10/8,11:49,41-56.75N,141-36.83E,183,18.671,33.1803
711,2021/10/8,11:50,41-56.46N,141-36.81E,183,18.669,33.1714
712,2021/10/8,11:51,41-56.16N,141-36.79E,183,18.675,33.1636
713,2021/10/8,11:52,41-55.88N,141-36.76E,183,18.677,33.1645
714,2021/10/8,11:53,41-55.63N,141-36.74E,183,18.673,33.162
715,2021/10/8,11:54,41-55.34N,141-36.72E,183,18.689,33.1567
716,2021/10/8,11:55,41-55.05N,141-36.69E,183,18.716,33.1521
717,2021/10/8,11:56,41-54.77N,141-36.67E,183,18.738,33.1571
718,2021/10/8,11:57,41-54.47N,141-36.64E,183,18.775,33.1551
719,2021/10/8,11:58,41-54.19N,141-36.61E,184,18.808,33.1604
720,2021/10/8,11:59,41-53.89N,141-36.59E,183,18.848,33.1676
721,2021/10/8,12:00,41-53.60N,141-36.56E,183,18.916,33.1694
722,2021/10/8,12:01,41-53.31N,141-36.54E,183,18.945,33.1806
723,2021/10/8,12:02,41-53.01N,141-36.51E,183,18.951,33.1978
724,2021/10/8,12:03,41-52.73N,141-36.48E,184,18.949,33.1996
725,2021/10/8,12:04,41-52.43N,141-36.45E,184,18.945,33.2013
726,2021/10/8,12:05,41-52.14N,141-36.42E,184,18.947,33.1995
727,2021/10/8,12:06,41-51.85N,141-36.39E,184,18.962,33.2057
728,2021/10/8,12:07,41-51.55N,141-36.36E,184,18.965,33.2039
729,2021/10/8,12:08,41-51.26N,141-36.33E,184,18.921,33.2118
730,2021/10/8,12:09,41-50.97N,141-36.30E,184,18.862,33.2141
731,2021/10/8,12:10,41-50.67N,141-36.27E,184,18.812,33.208
732,2021/10/8,12:11,41-50.39N,141-36.24E,184,18.744,33.2008
733,2021/10/8,12:12,41-50.10N,141-36.21E,184,18.718,33.1898
734,2021/10/8,12:13,41-49.81N,141-36.18E,184,18.77,33.1835
735,2021/10/8,12:14,41-49.51N,141-36.14E,184,18.809,33.185
736,2021/10/8,12:15,41-49.22N,141-36.11E,185,18.808,33.1985
737,2021/10/8,12:16,41-48.93N,141-36.08E,184,18.769,33.1945
738,2021/10/8,12:17,41-48.65N,141-36.04E,184,18.749,33.1955
739,2021/10/8,12:18,41-48.36N,141-36.02E,183,18.657,33.1931
740,2021/10/8,12:19,41-48.06N,141-35.99E,184,18.695,33.1763
741,2021/10/8,12:20,41-47.78N,141-35.96E,185,18.733,33.1351
742,2021/10/8,12:21,41-47.49N,141-35.92E,185,18.799,33.07
743,2021/10/8,12:22,41-47.20N,141-35.89E,184,18.837,33.0313
744,2021/10/8,12:23,41-46.91N,141-35.87E,182,18.866,33.0045
745,2021/10/8,12:24,41-46.62N,141-35.85E,182,18.91,32.9926
746,2021/10/8,12:25,41-46.33N,141-35.83E,182,18.957,32.9759
747,2021/10/8,12:26,41-46.04N,141-35.81E,183,19.08,32.9501
748,2021/10/8,12:27,41-45.75N,141-35.79E,182,19.361,32.9469
749,2021/10/8,12:28,41-45.45N,141-35.77E,181,19.546,33.0023
750,2021/10/8,12:29,41-45.17N,141-35.76E,181,19.4,33.1381
751,2021/10/8,12:30,41-44.87N,141-35.75E,181,19.135,33.2128
752,2021/10/8,12:31,41-44.58N,141-35.74E,182,18.861,33.2284
753,2021/10/8,12:32,41-44.29N,141-35.73E,180,18.698,33.2665
754,2021/10/8,12:33,41-44.00N,141-35.73E,180,18.37,33.2883
755,2021/10/8,12:34,41-43.72N,141-35.73E,179,18.333,33.335
756,2021/10/8,12:35,41-43.43N,141-35.73E,179,18.153,33.3439
757,2021/10/8,12:36,41-43.15N,141-35.73E,179,18,33.3559
758,2021/10/8,12:37,41-42.86N,141-35.74E,179,18.077,33.3815
759,2021/10/8,12:38,41-42.59N,141-35.75E,178,18.143,33.3876
760,2021/10/8,12:39,41-42.32N,141-35.76E,177,17.927,33.3835
761,2021/10/8,12:40,41-42.04N,141-35.77E,178,17.803,33.3811
762,2021/10/8,12:41,41-41.77N,141-35.78E,177,18.222,33.3881
763,2021/10/8,12:42,41-41.49N,141-35.79E,180,18.364,33.3876
764,2021/10/8,12:43,41-41.23N,141-35.77E,185,18.727,33.3639
765,2021/10/8,12:44,41-40.96N,141-35.75E,181,19.068,33.3566
766,2021/10/8,12:45,41-40.69N,141-35.75E,180,19.302,33.3283
767,2021/10/8,12:46,41-40.42N,141-35.74E,180,19.392,33.3072
768,2021/10/8,12:47,41-40.14N,141-35.77E,175,19.418,33.2916
769,2021/10/8,12:48,41-39.86N,141-35.81E,173,19.57,33.291
770,2021/10/8,12:49,41-39.58N,141-35.85E,173,19.399,33.2763
771,2021/10/8,12:50,41-39.26N,141-35.89E,175,19.201,33.207
772,2021/10/8,12:51,41-38.97N,141-35.90E,177,19.364,33.0611
773,2021/10/8,12:52,41-38.72N,141-35.91E,179,19.58,32.9336
774,2021/10/8,12:53,41-38.44N,141-35.92E,177,20.036,32.8909
775,2021/10/8,12:54,41-38.15N,141-35.94E,176,20.592,32.9083
776,2021/10/8,12:55,41-37.86N,141-35.95E,177,20.776,33.0327
777,2021/10/8,12:56,41-37.57N,141-35.96E,180,20.887,33.0955
778,2021/10/8,12:57,41-37.28N,141-35.95E,181,20.925,33.1306
779,2021/10/8,12:58,41-36.98N,141-35.94E,180,20.917,33.1328
780,2021/10/8,12:59,41-36.68N,141-35.94E,180,21.113,33.1426
781,2021/10/8,13:00,41-36.39N,141-35.94E,181,21.131,33.1663
782,2021/10/8,13:01,41-36.08N,141-35.93E,181,21.099,33.1792
783,2021/10/8,13:02,41-35.79N,141-35.92E,181,21.048,33.1893
784,2021/10/8,13:03,41-35.48N,141-35.91E,180,21.006,33.1988
785,2021/10/8,13:04,41-35.19N,141-35.90E,180,20.998,33.2056
786,2021/10/8,13:05,41-34.89N,141-35.90E,180,20.987,33.2086
787,2021/10/8,13:06,41-34.59N,141-35.88E,182,20.93,33.2095
788,2021/10/8,13:07,41-34.29N,141-35.86E,183,20.687,33.2041
789,2021/10/8,13:08,41-34.00N,141-35.84E,181,20.631,33.2217
790,2021/10/8,13:09,41-33.71N,141-35.84E,180,20.549,33.2389
791,2021/10/8,13:10,41-33.41N,141-35.83E,181,20.544,33.2552
792,2021/10/8,13:11,41-33.11N,141-35.82E,180,20.622,33.2558
793,2021/10/8,13:12,41-32.83N,141-35.81E,180,20.665,33.2587
794,2021/10/8,13:13,41-32.53N,141-35.81E,181,20.688,33.2511
795,2021/10/8,13:14,41-32.23N,141-35.81E,179,20.706,33.2494
796,2021/10/8,13:15,41-31.93N,141-35.81E,178,20.722,33.2352
797,2021/10/8,13:16,41-31.64N,141-35.82E,179,20.75,33.2369
798,2021/10/8,13:17,41-31.33N,141-35.82E,179,20.776,33.2299
799,2021/10/8,13:18,41-31.03N,141-35.82E,179,20.795,33.229
800,2021/10/8,13:19,41-30.73N,141-35.82E,180,20.8,33.2218
801,2021/10/8,13:20,41-30.42N,141-35.82E,180,20.733,33.223
802,2021/10/8,13:21,41-30.12N,141-35.81E,180,20.721,33.2182
803,2021/10/8,13:22,41-29.82N,141-35.80E,181,20.681,33.2257
804,2021/10/8,13:23,41-29.51N,141-35.80E,180,20.675,33.2292
805,2021/10/8,13:24,41-29.21N,141-35.80E,177,20.243,33.2349
806,2021/10/8,13:25,41-28.91N,141-35.81E,179,20.03,33.2502
807,2021/10/8,13:26,41-28.62N,141-35.82E,179,20.016,33.3007
808,2021/10/8,13:27,41-28.33N,141-35.82E,178,20.031,33.3214
809,2021/10/8,13:28,41-28.04N,141-35.83E,179,20.033,33.3437
810,2021/10/8,13:29,41-27.75N,141-35.84E,179,20.007,33.3482
811,2021/10/8,13:30,41-27.46N,141-35.85E,178,19.983,33.3512
812,2021/10/8,13:31,41-27.18N,141-35.85E,178,19.992,33.362
813,2021/10/8,13:32,41-26.90N,141-35.86E,178,19.949,33.3758
814,2021/10/8,13:33,41-26.62N,141-35.87E,178,19.899,33.3706
815,2021/10/8,13:34,41-26.33N,141-35.88E,178,19.908,33.3637
816,2021/10/8,13:35,41-26.06N,141-35.89E,178,19.982,33.3532
817,2021/10/8,13:36,41-25.78N,141-35.91E,177,20.092,33.359
818,2021/10/8,13:37,41-25.50N,141-35.92E,178,20.115,33.3894
819,2021/10/8,13:38,41-25.23N,141-35.93E,176,20.124,33.4084
820,2021/10/8,13:39,41-24.96N,141-35.97E,172,20.134,33.4063
821,2021/10/8,13:40,41-24.70N,141-36.04E,168,20.135,33.4136
822,2021/10/8,13:41,41-24.43N,141-36.12E,165,20.14,33.4109
823,2021/10/8,13:42,41-24.16N,141-36.22E,164,20.163,33.4109
824,2021/10/8,13:43,41-23.91N,141-36.32E,164,20.13,33.4106
825,2021/10/8,13:44,41-23.64N,141-36.41E,164,20.068,33.413
826,2021/10/8,13:45,41-23.39N,141-36.50E,165,20.068,33.3851
827,2021/10/8,13:46,41-23.12N,141-36.59E,165,20.08,33.3614
828,2021/10/8,13:47,41-22.86N,141-36.69E,165,20.027,33.3567
829,2021/10/8,13:48,41-22.60N,141-36.78E,165,20.007,33.3524
830,2021/10/8,13:49,41-22.34N,141-36.86E,166,19.996,33.3368
831,2021/10/8,13:50,41-22.08N,141-36.94E,166,20.011,33.3166
832,2021/10/8,13:51,41-21.82N,141-37.02E,167,20.019,33.3123
833,2021/10/8,13:52,41-21.56N,141-37.10E,167,20.011,33.3137
834,2021/10/8,13:53,41-21.29N,141-37.18E,167,20.011,33.31
835,2021/10/8,13:54,41-21.03N,141-37.25E,167,20.012,33.3094
836,2021/10/8,13:55,41-20.76N,141-37.33E,168,20.011,33.3091
837,2021/10/8,13:56,41-20.50N,141-37.39E,169,20.008,33.3067
838,2021/10/8,13:57,41-20.23N,141-37.45E,170,20,33.3048
839,2021/10/8,13:58,41-19.97N,141-37.51E,170,19.995,33.3026
840,2021/10/8,13:59,41-19.70N,141-37.57E,170,19.993,33.2979
841,2021/10/8,14:00,41-19.44N,141-37.63E,170,19.988,33.3037
842,2021/10/8,14:01,41-19.17N,141-37.68E,170,19.98,33.3043
843,2021/10/8,14:02,41-18.90N,141-37.74E,170,19.976,33.3032
844,2021/10/8,14:03,41-18.64N,141-37.80E,171,19.97,33.3026
845,2021/10/8,14:04,41-18.38N,141-37.85E,171,19.963,33.2988
846,2021/10/8,14:05,41-18.11N,141-37.91E,171,19.96,33.299
847,2021/10/8,14:06,41-17.85N,141-37.96E,170,19.955,33.3039
848,2021/10/8,14:07,41-17.58N,141-38.02E,171,19.957,33.3067
849,2021/10/8,14:08,41-17.31N,141-38.07E,171,19.953,33.3049
850,2021/10/8,14:09,41-17.04N,141-38.12E,171,19.944,33.3067
851,2021/10/8,14:10,41-16.78N,141-38.17E,171,19.94,33.3052
852,2021/10/8,14:11,41-16.51N,141-38.23E,171,19.941,33.3072
853,2021/10/8,14:12,41-16.25N,141-38.29E,171,19.939,33.3046
854,2021/10/8,14:13,41-15.98N,141-38.34E,170,19.939,33.3067
855,2021/10/8,14:14,41-15.72N,141-38.40E,169,19.942,33.3028
856,2021/10/8,14:15,41-15.45N,141-38.47E,169,19.948,33.3036
857,2021/10/8,14:16,41-15.19N,141-38.53E,169,19.948,33.2964
858,2021/10/8,14:17,41-14.93N,141-38.59E,169,19.952,33.3046
859,2021/10/8,14:18,41-14.67N,141-38.66E,169,19.955,33.302
860,2021/10/8,14:19,41-14.40N,141-38.72E,169,19.959,33.3027
861,2021/10/8,14:20,41-14.14N,141-38.78E,170,19.959,33.3037
862,2021/10/8,14:21,41-13.88N,141-38.84E,168,19.962,33.3079
863,2021/10/8,14:22,41-13.62N,141-38.92E,166,19.959,33.3067
864,2021/10/8,14:23,41-13.36N,141-39.01E,165,19.956,33.3062
865,2021/10/8,14:24,41-13.10N,141-39.10E,165,19.954,33.3034
866,2021/10/8,14:25,41-12.84N,141-39.19E,166,19.946,33.3055
867,2021/10/8,14:26,41-12.58N,141-39.27E,166,19.942,33.3049
868,2021/10/8,14:27,41-12.33N,141-39.36E,165,19.931,33.309
869,2021/10/8,14:28,41-12.06N,141-39.45E,166,19.914,33.3114
870,2021/10/8,14:29,41-11.80N,141-39.54E,165,19.897,33.3039
871,2021/10/8,14:30,41-11.54N,141-39.62E,165,19.886,33.3075
872,2021/10/8,14:31,41-11.27N,141-39.71E,165,19.872,33.3111
873,2021/10/8,14:32,41-11.01N,141-39.80E,165,19.859,33.3146
874,2021/10/8,14:33,41-10.74N,141-39.89E,165,19.846,33.3187
875,2021/10/8,14:34,41-10.47N,141-39.98E,165,19.838,33.3227
876,2021/10/8,14:35,41-10.20N,141-40.07E,165,19.836,33.3272
877,2021/10/8,14:36,41-09.94N,141-40.16E,165,19.833,33.3272
878,2021/10/8,14:37,41-09.67N,141-40.26E,165,19.839,33.3286
879,2021/10/8,14:38,41-09.40N,141-40.35E,165,19.836,33.3289
880,2021/10/8,14:39,41-09.14N,141-40.44E,165,19.82,33.3304
881,2021/10/8,14:40,41-08.87N,141-40.55E,162,19.789,33.3263
882,2021/10/8,14:41,41-08.61N,141-40.66E,161,19.768,33.3326
883,2021/10/8,14:42,41-08.34N,141-40.77E,161,19.85,33.3389
884,2021/10/8,14:43,41-08.08N,141-40.89E,162,19.908,33.3542
885,2021/10/8,14:44,41-07.82N,141-41.00E,161,19.973,33.3634
886,2021/10/8,14:45,41-07.55N,141-41.12E,161,20.032,33.3734
887,2021/10/8,14:46,41-07.29N,141-41.23E,161,20.074,33.3745
888,2021/10/8,14:47,41-07.02N,141-41.35E,161,20.089,33.3855
889,2021/10/8,14:48,41-06.75N,141-41.46E,161,20.093,33.3822
890,2021/10/8,14:49,41-06.48N,141-41.58E,161,20.093,33.3808
891,2021/10/8,14:50,41-06.22N,141-41.69E,161,20.084,33.3836
892,2021/10/8,14:51,41-05.96N,141-41.81E,161,20.076,33.3757
893,2021/10/8,14:52,41-05.69N,141-41.93E,161,20.086,33.3751
894,2021/10/8,14:53,41-05.43N,141-42.04E,161,20.151,33.3661
895,2021/10/8,14:54,41-05.15N,141-42.16E,161,20.128,33.3778
896,2021/10/8,14:55,41-04.90N,141-42.27E,161,20.107,33.3801
897,2021/10/8,14:56,41-04.63N,141-42.39E,162,20.101,33.3794
898,2021/10/8,14:57,41-04.36N,141-42.51E,162,20.076,33.3755
899,2021/10/8,14:58,41-04.10N,141-42.62E,161,20.055,33.3689
900,2021/10/8,14:59,41-03.83N,141-42.73E,162,20.033,33.3633
901,2021/10/8,15:00,41-03.56N,141-42.85E,162,20.019,33.3626
902,2021/10/8,15:01,41-03.29N,141-42.96E,162,20.013,33.35
903,2021/10/8,15:02,41-03.03N,141-43.07E,162,20.009,33.3585
904,2021/10/8,15:03,41-02.76N,141-43.19E,162,20.013,33.353
905,2021/10/8,15:04,41-02.49N,141-43.31E,161,20.008,33.3612
906,2021/10/8,15:05,41-02.21N,141-43.43E,161,20.019,33.3643
907,2021/10/8,15:06,41-01.95N,141-43.54E,161,20.038,33.3608
908,2021/10/8,15:07,41-01.68N,141-43.65E,161,20.044,33.3664
909,2021/10/8,15:08,41-01.41N,141-43.77E,161,20.029,33.375
910,2021/10/8,15:09,41-01.14N,141-43.89E,161,20.043,33.377
911,2021/10/8,15:10,41-00.87N,141-44.01E,161,20.097,33.3852
912,2021/10/8,15:11,41-00.60N,141-44.13E,162,20.063,33.4021
913,2021/10/8,15:12,41-00.33N,141-44.24E,162,19.976,33.3844
914,2021/10/8,15:13,41-00.06N,141-44.36E,161,19.954,33.3624
915,2021/10/8,15:14,40-59.79N,141-44.48E,161,19.939,33.3497
916,2021/10/8,15:15,40-59.52N,141-44.59E,161,19.94,33.3388
917,2021/10/8,15:16,40-59.26N,141-44.70E,161,19.963,33.3388
918,2021/10/8,15:17,40-58.99N,141-44.82E,161,20.028,33.3399
919,2021/10/8,15:18,40-58.72N,141-44.94E,161,20.1,33.3509
920,2021/10/8,15:19,40-58.45N,141-45.06E,161,20.135,33.3835
921,2021/10/8,15:20,40-58.19N,141-45.17E,161,20.125,33.391
922,2021/10/8,15:21,40-57.91N,141-45.29E,162,20.096,33.3948
923,2021/10/8,15:22,40-57.65N,141-45.40E,162,20.066,33.3921
924,2021/10/8,15:23,40-57.38N,141-45.52E,162,20.012,33.3875
925,2021/10/8,15:24,40-57.11N,141-45.63E,161,19.965,33.3825
926,2021/10/8,15:25,40-56.84N,141-45.76E,161,19.938,33.3871
927,2021/10/8,15:26,40-56.57N,141-45.88E,161,19.962,33.3916
928,2021/10/8,15:27,40-56.30N,141-46.00E,161,19.962,33.3976
929,2021/10/8,15:28,40-56.04N,141-46.11E,161,19.979,33.3946
930,2021/10/8,15:29,40-55.76N,141-46.23E,161,19.998,33.3961
931,2021/10/8,15:30,40-55.50N,141-46.35E,161,20.003,33.4017
932,2021/10/8,15:31,40-55.23N,141-46.46E,163,19.994,33.3981
933,2021/10/8,15:32,40-54.92N,141-46.57E,164,19.982,33.4084
934,2021/10/8,15:33,40-54.65N,141-46.68E,164,19.966,33.401
935,2021/10/8,15:34,40-54.38N,141-46.78E,164,19.949,33.4028
936,2021/10/8,15:35,40-54.10N,141-46.87E,164,19.935,33.3977
937,2021/10/8,15:36,40-53.87N,141-46.96E,164,19.934,33.3946
938,2021/10/8,15:37,40-53.60N,141-47.06E,163,19.94,33.3882
939,2021/10/8,15:38,40-53.33N,141-47.16E,164,19.936,33.3907
940,2021/10/8,15:39,40-53.06N,141-47.26E,164,19.934,33.3887
941,2021/10/8,15:40,40-52.75N,141-47.37E,165,19.926,33.3852
942,2021/10/8,15:41,40-52.46N,141-47.47E,164,19.917,33.3899
943,2021/10/8,15:42,40-52.20N,141-47.57E,164,19.901,33.3896
944,2021/10/8,15:43,40-51.92N,141-47.68E,163,19.858,33.3947
945,2021/10/8,15:44,40-51.69N,141-47.76E,164,19.829,33.3978
946,2021/10/8,15:45,40-51.41N,141-47.86E,164,19.81,33.3872
947,2021/10/8,15:46,40-51.14N,141-47.96E,164,19.797,33.3955
948,2021/10/8,15:47,40-50.85N,141-48.07E,163,19.777,33.3999
949,2021/10/8,15:48,40-50.56N,141-48.18E,164,19.757,33.392
950,2021/10/8,15:49,40-50.29N,141-48.28E,164,19.744,33.3891
951,2021/10/8,15:50,40-50.02N,141-48.38E,163,19.719,33.3893
952,2021/10/8,15:51,40-49.74N,141-48.49E,163,19.692,33.3846
953,2021/10/8,15:52,40-49.51N,141-48.58E,163,19.666,33.3925
954,2021/10/8,15:53,40-49.23N,141-48.69E,163,19.661,33.3893
955,2021/10/8,15:54,40-48.97N,141-48.79E,163,19.667,33.3967
956,2021/10/8,15:55,40-48.70N,141-48.90E,163,19.672,33.4058
957,2021/10/8,15:56,40-48.43N,141-49.00E,163,19.673,33.4078
958,2021/10/8,15:57,40-48.15N,141-49.11E,163,19.675,33.4053
959,2021/10/8,15:58,40-47.88N,141-49.22E,163,19.692,33.4059
960,2021/10/8,15:59,40-47.61N,141-49.32E,163,19.696,33.4021
961,2021/10/8,16:00,40-47.34N,141-49.44E,161,19.686,33.4068